Regional Weather Roundup
Issued by NWS Sterling, VA

Home | Current Version | Previous Version | Text Only | Print | Product List | Glossary Off
Versions: 1 2 3 4 5 6 7 8 9 10 11 12 13 14 15 16 17 18 19 20 21 22 23 24 25 26 27

000
ASUS41 KLWX 171111
RWRLWX

REGIONAL WEATHER ROUNDUP
NATIONAL WEATHER SERVICE BALTIMORE MD/WASHINGTON DC
600 AM EST FRI NOV 17 2017

Note: "FAIR" indicates few or no clouds below 12,000 feet
with no significant weather and/or obstructions to visibility.
 TC=TEMPERATURE CELSIUS

 * =Non NWS site. Station does not report precipitation (e.g. rain,
    snow, etc.), thunder, or fog.

DCZ001-MDZ009-015-VAZ040>042-051-053>054-171200-
WASHINGTON METRO

CITY           SKY/WX    TMP DP  RH WIND       PRES   REMARKS
WASHINGTON NAT CLEAR     43  29  57 NW8       30.17S
DULLES         PTCLDY    37  29  72 W6        30.17S
ANDREWS AFB    CLEAR     41  28  59 NW10      30.15R
FT BELVOIR     CLEAR     39  28  64 NW3       30.17R
QUANTICO       CLEAR     41  30  65 N6        30.18S
COLLEGE PARK*  CLEAR     38  28  66 CALM      30.16S
LEESBURG*      CLEAR     41  32  70 NW13      30.18R
MANASSAS*      PTCLDY    39  28  64 N8        30.18S
GAITHERSBURG*  PTCLDY    38  28  67 NW8       30.15R

$$

MDZ006>007-011-014-171200-
BALTIMORE METRO

CITY           SKY/WX    TMP DP  RH WIND       PRES   REMARKS
BWI AIRPORT    PTCLDY    36  29  75 W6        30.15R
MD SCIENCE CTR   N/A     41  29  62 MISG      30.15R
MARTIN STATE   PTCLDY    39  32  75 W3        30.16R
ANNAPOLIS      CLEAR     42  31  64 W6        30.15R
FORT MEADE*    CLEAR     34  32  93 W6        30.18R

$$

MDZ012-015-019>023-171200-
MARYLAND EASTERN SHORE

CITY           SKY/WX    TMP DP  RH WIND       PRES   REMARKS
OCEAN CITY     CLEAR     39  32  76 NW9       30.11S
SALISBURY      CLEAR     42  31  64 NW9       30.12R
CAMBRIDGE*       N/A    N/A N/A N/A MISG        N/A
EASTON*        PTCLDY    45  30  57 NW9       30.18R

$$

MDZ017>025-171200-
SOUTHERN MARYLAND

CITY           SKY/WX    TMP DP  RH WIND       PRES   REMARKS
PATUXENT RIVER PTCLDY    39  30  70 W9        30.15R
ST INIGOES     PTCLDY    42  30  62 VRB5      30.15R
LEONARDTOWN*   CLEAR     36  30  80 CALM      30.17R

$$

MDZ003>005-171200-
NORTH CENTRAL MARYLAND

CITY           SKY/WX    TMP DP  RH WIND       PRES   REMARKS
FREDERICK*     CLEAR     41  28  60 CALM      30.19R
HAGERSTOWN APT PTCLDY    38  30  73 NW14      30.15R
WESTMINSTER*   CLEAR     37  30  75 W9        30.12R

$$

MDZ501>502-171200-
WESTERN MARYLAND

CITY           SKY/WX    TMP DP  RH WIND       PRES   REMARKS
OAKLAND*       CLOUDY    28  27  93 NW6G17    30.11R
CUMBERLAND*    PTCLDY    39  28  65 NW9       30.23R

$$

VAZ025>031-171200-
SHENANDOAH VALLEY

CITY           SKY/WX    TMP DP  RH WIND       PRES   REMARKS
WINCHESTER*    CLEAR     36  28  75 W8        30.17R
FRONT ROYAL*   CLEAR     36  28  75 SW5       30.17R
LURAY*         CLEAR     36  30  80 CALM      30.19R
NEW MARKET*    CLEAR     29  26  88 CALM      30.19R
STAUNTON*      CLEAR     24  21  90 SE3       30.20S
WAYNESBORO*    PTCLDY    32  26  79 W7        30.17S

$$

WVZ021-048>050-054>055-171200-
EASTERN WEST VIRGINIA PANHANDLE

CITY           SKY/WX    TMP DP  RH WIND       PRES   REMARKS
MARTINSBURG    CLEAR     38  26  62 W5        30.17R
PETERSBURG*    CLEAR     29  26  88 CALM      30.22R

$$

VAZ036>039-050-171200-
CENTRAL FOOTHILLS

CITY           SKY/WX    TMP DP  RH WIND       PRES   REMARKS
CHARLOTTESVILL CLEAR     39  28  64 NW5       30.17R
CULPEPER*      CLOUDY    33  28  80 CALM      30.19R
ORANGE*        CLOUDY    30  28  93 CALM      30.18R
GORDONSVILLE*  CLOUDY    34  29  83 NW3       30.17S
WARRENTON*     NOT AVBL

$$

VAZ055>057-171200-
NORTH AND CENTRAL PIEDMONT

CITY           SKY/WX    TMP DP  RH WIND       PRES   REMARKS
FREDERICKSBRG* PTCLDY    34  31  90 SE3       30.18R
STAFFORD*      CLEAR     36  29  78 CALM      30.22R

$$

NCZ024-NYZ072-PAZ021-071-VAZ022-071-171200-
OTHER REGIONAL OBSERVATIONS

CITY           SKY/WX    TMP DP  RH WIND       PRES   REMARKS
NEW YORK CITY  CLEAR     40  25  55 NW12G25   30.03R
PHILADELPHIA   PTCLDY    44  27  51 W10       30.09R
PITTSBURGH     CLOUDY    37  28  70 NW6       30.22R
ROANOKE        PTCLDY    34  26  72 W5        30.23S
RICHMOND       CLEAR     37  29  72 W3        30.19R
RALEIGH        PTCLDY    38  30  73 NE3       30.20R

$$

ANZ530>537-171200-
MARINE OBSERVATIONS

STATION/POSITION TIME  TEMP    WIND        PRES
                       AIR SEA DIR/SP/G
                 (UTC) (F)     (DEG/KT/KT) (MB)
THOMAS PT LIGHT  1100   43 53  290/ 11/ 13   N/A
BALT KEY BRIDGE  1048   42     250/  9/ 10 1020.9R
COVE POINT       1048   44     320/ 12/ 21 1021.4R
LEWISETTA        1048   45 50  340/ 11/ 18 1021.1R
SOLOMONS ISLAND  1048   44 55  310/  7/ 11 1020.7R
PINEY POINT      1048          350/ 19/ 21   N/A

$$





USA.gov is the U.S. government's official web portal to all federal, state and local government web resources and services.